TimeCDT,TemperatureF,Dew PointF,Humidity,Sea Level PressureIn,VisibilityMPH,Wind Direction,Wind SpeedMPH,Gust SpeedMPH,PrecipitationIn,Events,Conditions,WindDirDegrees,DateUTC
12:56 AM,33.1,30.0,89,29.89,-9999.0,North,10.4,-,N/A,,Unknown,350,2013-04-07 05:56:00
1:56 AM,33.1,30.0,89,29.89,-9999.0,North,10.4,-,N/A,,Unknown,360,2013-04-07 06:56:00
2:56 AM,32.0,28.9,88,29.89,-9999.0,North,10.4,-,N/A,,Unknown,10,2013-04-07 07:56:00
3:56 AM,30.9,28.0,89,29.91,-9999.0,NNE,9.2,-,N/A,,Unknown,20,2013-04-07 08:56:00
4:56 AM,30.9,28.0,89,29.92,-9999.0,NNE,9.2,-,N/A,,Unknown,20,2013-04-07 09:56:00
5:56 AM,30.9,28.0,89,29.92,-9999.0,NNE,6.9,-,N/A,,Unknown,20,2013-04-07 10:56:00
6:56 AM,30.9,28.0,89,29.93,-9999.0,NNW,5.8,-,N/A,,Unknown,330,2013-04-07 11:56:00
7:56 AM,30.9,28.0,89,29.94,-9999.0,West,4.6,-,N/A,,Unknown,280,2013-04-07 12:56:00
8:56 AM,32.0,28.0,85,29.94,-9999.0,WSW,4.6,-,N/A,,Unknown,240,2013-04-07 13:56:00
9:56 AM,32.0,28.0,85,29.94,-9999.0,Calm,Calm,-,N/A,,Unknown,0,2013-04-07 14:56:00
10:56 AM,33.1,28.9,85,29.93,-9999.0,South,5.8,-,N/A,,Unknown,170,2013-04-07 15:56:00
11:56 AM,34.0,28.9,82,29.94,-9999.0,South,5.8,-,N/A,,Unknown,170,2013-04-07 16:56:00
12:56 PM,35.1,30.0,82,29.90,-9999.0,SE,9.2,-,N/A,,Unknown,140,2013-04-07 17:56:00
1:56 PM,36.0,30.9,82,29.87,-9999.0,SSE,9.2,-,N/A,,Unknown,160,2013-04-07 18:56:00
2:56 PM,36.0,32.0,86,29.84,-9999.0,SSE,13.8,-,N/A,,Unknown,160,2013-04-07 19:56:00
3:56 PM,37.0,32.0,82,29.82,-9999.0,South,12.7,-,N/A,,Unknown,170,2013-04-07 20:56:00
4:56 PM,37.0,33.1,86,29.82,-9999.0,South,12.7,-,N/A,,Unknown,170,2013-04-07 21:56:00
5:56 PM,37.0,33.1,86,29.82,-9999.0,SSE,11.5,-,N/A,,Unknown,160,2013-04-07 22:56:00
6:56 PM,37.0,34.0,89,29.80,-9999.0,SE,6.9,-,N/A,,Unknown,130,2013-04-07 23:56:00
7:56 PM,36.0,35.1,97,29.80,-9999.0,ESE,3.5,-,0.04,,Unknown,110,2013-04-08 00:56:00
8:56 PM,35.1,34.0,96,29.79,-9999.0,ESE,5.8,-,0.01,,Unknown,110,2013-04-08 01:56:00
9:56 PM,35.1,34.0,96,29.79,-9999.0,ENE,5.8,-,N/A,,Unknown,70,2013-04-08 02:56:00
10:56 PM,34.0,34.0,100,29.78,-9999.0,NNE,3.5,-,N/A,,Unknown,30,2013-04-08 03:56:00
11:56 PM,34.0,34.0,100,29.78,-9999.0,NNW,4.6,-,N/A,,Unknown,340,2013-04-08 04:56:00